{"data":{"norad_id":58984,"epoch":"2026-05-24T16:19:06.606048Z","epoch_age_seconds":113135,"freshness":"FRESH","line1":"1 58984U 24031V   26144.67993757 -.00000524  00000+0 -55530-5 0  9999","line2":"2 58984  53.1608 304.0070 0001244  89.9928 270.1215 15.30188620128147","mean_motion":15.3018862,"eccentricity":0.0001244,"inclination_deg":53.1608,"raan_deg":304.007,"arg_perigee_deg":89.9928,"mean_anomaly_deg":270.1215,"bstar":-5.553e-6,"rev_number":12814,"period_min":94.106045567114,"perigee_km":474.39648703424,"apogee_km":476.10160948305,"semimajor_km":6853.3860482586,"source":"CELESTRAK","updated_at":"2026-05-25T13:38:18.796918Z"}}